[vc_row][vc_column width=”2/3″]

Nesenie raksti

Ziņas

[/vc_column][vc_column width=”1/3″ el_class=”sticky-column”]

Par Gliding.lv

[vc_column_text]Gliding.lv ir interneta vietne par planieriem un planierismu. Šeit būs atrodama informācija par iespējām pamēģināt, iesaistīties un organizēt planierisma aktivitātes. Izmanto Gliding.lv forumu, ja Tev ir kāda tēma diskusijai vai jautājums. Gliding.lv merķis ir informēt un apvienot planierisma interesentus, nodrošinot un apmainoties ar aktuālāko un arī bijušo. Lidojam![/vc_column_text][vc_column_text]
[/vc_column_text]

METAR

EVRA 170850Z 07008KT 9999 OVC037 10/07 Q1014 NOSIG

EVLA 170850Z AUTO 09012KT 9999 -RA SCT010/// BKN021/// OVC040/// 11/09 Q1012

EVVA 170850Z AUTO 08009KT CAVOK 12/10 Q1014

Nesenie raksti

[/vc_column][/vc_row]

Pāriet uz rīkjoslu